AirNav   Phillips 66 Aviation Fuel
 
 1654 users online  

66IN Oakes Field Airport
Charlottesville, Indiana, USA

GOING TO CHARLOTTESVILLE?


FAA INFORMATION EFFECTIVE 29 MARCH 2018

Location

FAA Identifier: 66IN
Lat/Long: 39-47-15.0000N / 085-38-13.0000W
39-47.250000N / 085-38.216667W
39.7875000 / -85.6369444
(estimated)
Elevation: 935 ft. / 285 m (estimated)
Variation: 03W (1995)
From city: 1 mile W of CHARLOTTESVILLE, IN
Time zone: UTC -4 (UTC -5 during Standard Time)
Zip code: 46140

Airport Operations

Airport use: Private use. Permission required prior to landing
Activation date: 02/1998
Control tower: no
ARTCC: INDIANAPOLIS CENTER
FSS: TERRE HAUTE FLIGHT SERVICE STATION
Attendance: CONTINUOUS
Segmented circle: no

Airport Communications

WX AWOS-3 at MQJ (12 nm W): 124.175 (317-335-3037)
WX ASOS at GEZ (15 nm SW): 121.55 (317-398-0246)
WX AWOS-3 at AID (19 nm N): 128.55 (765-378-1510)

Nearby radio navigation aids

VOR radial/distance  VOR name  Freq  Var
SHBr042/12.7SHELBYVILLE VOR/DME112.0001E
MIEr205/29.2MUNCIE VOR/DME114.4003W
VHPr092/33.7BRICKYARD VORTAC116.3001E
RIDr276/36.9RICHMOND VORTAC110.6003W

 
NDB name  Hdg/Dist  Freq  Var  ID
NEW CASTLE251/15.738502WUWL ..- .-- .-..
METROPOLITAN118/21.133803WUMP ..- -- .--.
BATESVILLE332/31.725405WHLB .... .-.. -...

Airport Services

Runway Information

Runway 18/36

Dimensions: 1025 x 75 ft. / 312 x 23 m
Surface: turf, in good condition
RUNWAY 18  RUNWAY 36
Traffic pattern: leftleft

Airport Ownership and Management from official FAA records

Ownership: Privately-owned
Owner: DAVID W. OAKES
8933 EAST HIGHWAY 40
GREENFIELD, IN 46140
Phone 317-936-5500
Manager: DAVID W. OAKES
8933 EAST HIGHWAY 40
GREENFIELD, IN 46140
Phone 317-936-5500

Airport Operational Statistics

Aircraft based on the field: 1
Single engine airplanes: 1
    

Instrument Procedures

There are no published instrument procedures at 66IN.

Some nearby airports with instrument procedures:

KMQJ - Indianapolis Regional Airport (12 nm W)
KGEZ - Shelbyville Municipal Airport (15 nm SW)
KUWL - New Castle-Henry County Municipal Airport (15 nm E)
KAID - Anderson Municipal Airport-Darlington Field (19 nm N)
KUMP - Indianapolis Metropolitan Airport (21 nm NW)
 
Loc | Ops | Rwys | IFR | FBO | Links
Com | Nav | Svcs | Stats | Notes

AirNav Hotels Sweepstakes
 
Area around 66IN (Oakes Field Airport)
 
Road maps at: MapQuest Bing Google
 
Aerial photo
No photo
 
Sectional chart

 
Airport distance calculator
Flying to Oakes Field Airport? Find the distance to fly.

From to 66IN

Sunrise and sunset
Times for 19-Apr-2018
 Local
(UTC-4)
 Zulu
(UTC)
Morning civil twilight06:3210:32
Sunrise07:0011:00
Sunset20:2300:23
Evening civil twilight20:5200:52

Current date and time
Zulu (UTC)  19-Apr-2018 15:47:13
Local (UTC-4)  19-Apr-2018 11:47:13
 
METAR
KMQJ 
12nm W 
191535Z AUTO 35008KT 10SM SCT025 BKN031 05/01 A3024 RMK AO1
KGEZ 
14nm SW 
191453Z AUTO 35010KT 10SM OVC021 04/M01 A3022 RMK AO2 SLP236 T00391011 53043
KAID 
20nm N 
191354Z 36010KT 10SM BKN017 02/M01 A3018
KHFY 
23nm SW 
191535Z AUTO 04008KT 10SM BKN022 BKN028 OVC034 05/M01 A3025 RMK AO2 T00461008
TAF
KIND 
30nm W 
191428Z 1914/2018 36014KT P6SM OVC025 FM191600 35012G20KT P6SM SCT100
NOTAMs
Click for the latest NOTAMs
NOTAMs are issued by the DoD/FAA and will open in a separate window not controlled by AirNav.

 

 
 

Would you like to see your business listed on this page?

 If your business provides an interesting product or service to pilots, flight crews, aircraft, or users of the Oakes Field Airport, you should consider listing it here.  To start the listing process, click on the button below
 
Add a business
 

Other Pages about Oakes Field Airport

Update a link
 
Copyright © AirNav, LLC. All rights reserved. Privacy Policy  Contact